Location: Adrasan
(36.3319°N, 30.4314°E)
Time: 02:55:34
(UTC+00:00)

COSMO-SKYMED 1 - Pass Details

Date: 21 October 2025
Orbit: 580 x 582 km, 97.9° (Epoch: 13 November)

Event Time Altitude Azimuth Distance (km) Brightness Sun altitude
Rises 16:27:26 0° 7° (N) 2,806 5.8 -15.4°
Reaches altitude 10° 16:29:37 10° 4° (N) 1,902 5.0 -15.8°
Maximum altitude 16:33:40 59° 285° (WNW) 674 3.0 -16.7°
Drops below altitude 10° 16:37:41 10° 206° (SSW) 1,887 5.4 -17.5°
Sets 16:39:51 0° 202° (SSW) 2,782 6.2 -17.9°
